If you wish to contribute or participate in the discussions about articles you are invited to join SKYbrary as a registered user

 Actions

Badajoz Airport

From SKYbrary Wiki

LEBZ
Airport
ICAO: LEBZ – IATA: BJZ
Summary
Name Badajoz Airport
Region Europe
Territory Spain ES.gif
Location , Extremadura
Serving Badajoz
Elevation 185.623 m
609 ft
609 ft185.623 m
Type medium airport
Coordinates 38° 53' 28.50" N, 6° 49' 16.80" W
Runways
Designator Length Width Surface ROPS
13/31 2850 m9,350.394 ft
60 m196.85 ft
ASP yes/yes


METAR
Observation LEBZ 070830Z 29003KT 240V010 CAVOK 27/16 Q1017
Station Badajoz / Talavera La Real
Date/Time 07 August 2020 08:30:00
Wind direction 290°
Wind speed 03 kts
Lowest cloud amount clouds and visibility OK
Temperature 27°C
Dew point 16°C
Humidity 51%
QNH 1017 hPa
Weather condition n/a